VODO74 CYQQ-CYQQ

Flight info

Callsign VODO74
Flight time 1h 28m
Altitude 10500
Route UQQ DCT CYYJ DCT OMVIN DCT DASMU DCT FOCHE DCT CBS8 DCT CCS6
Aircraft F18H/M-SDGHITUY/LB1

Departure

Time 2026-04-26 02:20
Airport Comox Valley International Airport / CFB Comox (CYQQ)

Arrival

Time 2026-04-26 03:49
Airport Comox Valley International Airport / CFB Comox (CYQQ)
Time Latitude Longitude Altitude Speed Heading
2026-04-26 02:04 49.71754 -124.90108 86 ft 0 kts 51°
2026-04-26 02:15 49.71792 -124.90049 86 ft 19 kts 61°
2026-04-26 02:15 49.71710 -124.89880 85 ft 24 kts 134°
2026-04-26 02:16 49.71604 -124.89719 88 ft 18 kts 135°
2026-04-26 02:16 49.71531 -124.89601 89 ft 13 kts 136°
2026-04-26 02:16 49.71472 -124.89515 90 ft 10 kts 136°
2026-04-26 02:16 49.71430 -124.89454 88 ft 7 kts 136°
2026-04-26 02:17 49.71362 -124.89349 87 ft 23 kts 134°
2026-04-26 02:17 49.71245 -124.89170 85 ft 25 kts 136°
2026-04-26 02:17 49.71117 -124.88974 86 ft 26 kts 135°
2026-04-26 02:17 49.70987 -124.88777 88 ft 26 kts 134°
2026-04-26 02:18 49.70869 -124.88596 89 ft 22 kts 135°
2026-04-26 02:18 49.70765 -124.88435 88 ft 23 kts 133°
2026-04-26 02:18 49.70640 -124.88245 84 ft 27 kts 135°
2026-04-26 02:18 49.70505 -124.88033 87 ft 28 kts 128°
2026-04-26 02:19 49.70507 -124.87843 89 ft 18 kts 47°
2026-04-26 02:19 49.70596 -124.87883 90 ft 24 kts 317°
2026-04-26 02:19 49.71205 -124.88880 367 ft 209 kts 308°
2026-04-26 02:19 49.72475 -124.90760 1928 ft 40 kts 118°
2026-04-26 02:20 49.71236 -124.89377 462 ft 321 kts 124°
2026-04-26 02:20 49.70098 -124.87245 3292 ft 203 kts 308°
2026-04-26 02:20 49.71500 -124.89519 442 ft 386 kts 320°
2026-04-26 02:20 49.73589 -124.89388 1302 ft 323 kts 29°
2026-04-26 02:21 49.75618 -124.87793 2115 ft 326 kts
2026-04-26 02:21 49.76580 -124.90059 1934 ft 346 kts 244°
2026-04-26 02:21 49.74385 -124.91403 1321 ft 376 kts 162°
2026-04-26 02:21 49.71875 -124.89777 617 ft 389 kts 136°
2026-04-26 02:22 49.70054 -124.87152 887 ft 321 kts 135°
2026-04-26 02:22 49.69332 -124.85906 3460 ft 55 kts 309°
2026-04-26 02:22 49.70429 -124.87624 346 ft 310 kts 316°
2026-04-26 02:22 49.71929 -124.89929 2511 ft 19 kts 322°
2026-04-26 02:23 49.71183 -124.88740 5096 ft 255 kts 130°
2026-04-26 02:23 49.70952 -124.88419 1012 ft 269 kts 315°
2026-04-26 02:23 49.72307 -124.90512 648 ft 211 kts 314°
2026-04-26 02:23 49.73623 -124.91767 838 ft 229 kts 85°
2026-04-26 02:24 49.72282 -124.90422 442 ft 298 kts 136°
2026-04-26 02:24 49.70452 -124.87842 368 ft 417 kts 133°
2026-04-26 02:24 49.69510 -124.85031 3929 ft 34 kts 237°
2026-04-26 02:24 49.69172 -124.86380 3516 ft 114 kts 298°
2026-04-26 02:25 49.70934 -124.88411 440 ft 438 kts 315°
2026-04-26 02:25 49.72189 -124.87380 1017 ft 408 kts 162°
2026-04-26 02:25 49.72081 -124.90036 1703 ft 246 kts 343°
2026-04-26 02:25 49.73629 -124.90930 2368 ft 221 kts 320°
2026-04-26 02:26 49.73201 -124.92480 1236 ft 226 kts 136°
2026-04-26 02:26 49.72289 -124.90478 490 ft 255 kts 134°
2026-04-26 02:26 49.70982 -124.88370 508 ft 305 kts 134°
2026-04-26 02:26 49.69596 -124.85703 737 ft 307 kts 98°
2026-04-26 02:27 49.68497 -124.83665 854 ft 264 kts 200°
2026-04-26 02:27 49.68696 -124.85337 616 ft 242 kts 329°
2026-04-26 02:27 49.70049 -124.87086 239 ft 248 kts 316°
2026-04-26 02:27 49.71164 -124.88784 684 ft 165 kts 315°
2026-04-26 02:28 49.71689 -124.89635 1161 ft 84 kts 313°
2026-04-26 02:28 49.72139 -124.90373 727 ft 108 kts 317°
2026-04-26 02:28 49.72995 -124.91752 1222 ft 248 kts 277°
2026-04-26 02:28 49.71699 -124.94029 1822 ft 326 kts 216°
2026-04-26 02:29 49.69512 -124.96065 1600 ft 404 kts 193°
2026-04-26 02:29 49.69040 -124.93668 1041 ft 401 kts 50°
2026-04-26 02:29 49.71336 -124.89457 1118 ft 500 kts 47°
2026-04-26 02:29 49.71637 -124.88346 7448 ft 114 kts 54°
2026-04-26 02:30 49.71446 -124.88598 2745 ft 284 kts 112°
2026-04-26 02:30 49.70788 -124.84816 2350 ft 418 kts 106°
2026-04-26 02:30 49.68878 -124.81483 1882 ft 454 kts 188°
2026-04-26 02:30 49.68983 -124.85061 895 ft 504 kts 310°
2026-04-26 02:31 49.71836 -124.89672 466 ft 624 kts 315°
2026-04-26 02:31 49.73945 -124.92926 8622 ft 438 kts 314°
2026-04-26 02:31 49.73120 -124.91753 1330 ft 524 kts 136°
2026-04-26 02:31 49.70702 -124.88477 621 ft 387 kts 143°
2026-04-26 02:32 49.70982 -124.84998 1312 ft 425 kts 65°
2026-04-26 02:32 49.70184 -124.81956 1370 ft 350 kts 232°
2026-04-26 02:32 49.70826 -124.85098 1113 ft 383 kts 280°
2026-04-26 02:32 49.71426 -124.90393 848 ft 580 kts 277°
2026-04-26 02:33 49.72373 -124.95818 1663 ft 465 kts 351°
2026-04-26 02:33 49.72850 -124.92694 1303 ft 402 kts 107°
2026-04-26 02:33 49.71211 -124.88867 741 ft 447 kts 131°
2026-04-26 02:33 49.69038 -124.85323 3476 ft 484 kts 133°
2026-04-26 02:34 49.66576 -124.81357 9363 ft 537 kts 130°
2026-04-26 02:34 49.63922 -124.76942 10669 ft 571 kts 131°
2026-04-26 02:34 49.61221 -124.72446 10270 ft 568 kts 131°
2026-04-26 02:34 49.58557 -124.68016 10464 ft 559 kts 131°
2026-04-26 02:35 49.55922 -124.63640 10542 ft 556 kts 131°
2026-04-26 02:35 49.53296 -124.59281 10571 ft 554 kts 131°
2026-04-26 02:35 49.50675 -124.54934 10585 ft 554 kts 131°
2026-04-26 02:35 49.48054 -124.50589 10590 ft 554 kts 131°
2026-04-26 02:36 49.45353 -124.46364 10594 ft 555 kts 134°
2026-04-26 02:36 49.42556 -124.42272 10576 ft 556 kts 135°
2026-04-26 02:36 49.39721 -124.38227 10513 ft 557 kts 135°
2026-04-26 02:36 49.36865 -124.34195 10483 ft 557 kts 136°
2026-04-26 02:37 49.34010 -124.30178 10482 ft 557 kts 136°
2026-04-26 02:37 49.31192 -124.26215 10493 ft 557 kts 136°
2026-04-26 02:37 49.28338 -124.22201 10499 ft 558 kts 136°
2026-04-26 02:37 49.25482 -124.18179 10496 ft 558 kts 136°
2026-04-26 02:38 49.22626 -124.14154 10498 ft 558 kts 136°
2026-04-26 02:38 49.19773 -124.10130 10498 ft 559 kts 136°
2026-04-26 02:38 49.16918 -124.06102 10497 ft 559 kts 136°
2026-04-26 02:38 49.14062 -124.02067 10491 ft 559 kts 136°
2026-04-26 02:39 49.11206 -123.98031 10484 ft 559 kts 136°
2026-04-26 02:39 49.08350 -123.93992 10487 ft 559 kts 135°
2026-04-26 02:39 49.05499 -123.89959 10475 ft 560 kts 135°
2026-04-26 02:39 49.02645 -123.85924 10485 ft 560 kts 135°
2026-04-26 02:40 48.99791 -123.81893 10490 ft 559 kts 135°
2026-04-26 02:40 48.96935 -123.77865 10481 ft 560 kts 135°
2026-04-26 02:40 48.95045 -123.75202 10489 ft 560 kts 135°
2026-04-26 02:40 48.92233 -123.71248 9005 ft 517 kts 136°
2026-04-26 02:41 48.89826 -123.67809 6628 ft 426 kts 134°
2026-04-26 02:41 48.87897 -123.65003 6531 ft 344 kts 134°
2026-04-26 02:41 48.86350 -123.62792 6463 ft 266 kts 135°
2026-04-26 02:41 48.85155 -123.61158 6491 ft 198 kts 135°
2026-04-26 02:42 48.84238 -123.59956 6509 ft 163 kts 135°
2026-04-26 02:42 48.83368 -123.58830 6514 ft 167 kts 135°
2026-04-26 02:42 48.82471 -123.57665 6511 ft 172 kts 135°
2026-04-26 02:42 48.81263 -123.56674 5256 ft 234 kts 181°
2026-04-26 02:43 48.77348 -123.57791 3237 ft 300 kts 186°
2026-04-26 02:43 48.75316 -123.57970 3154 ft 285 kts 176°
2026-04-26 02:43 48.73506 -123.57101 3054 ft 267 kts 155°
2026-04-26 02:44 48.72017 -123.55548 2936 ft 256 kts 135°
2026-04-26 02:44 48.70821 -123.53632 2787 ft 245 kts 130°
2026-04-26 02:44 48.69699 -123.51778 2609 ft 234 kts 135°
2026-04-26 02:44 48.68668 -123.49934 2431 ft 226 kts 121°
2026-04-26 02:45 48.67929 -123.47856 2152 ft 227 kts 114°
2026-04-26 02:45 48.67391 -123.45598 1825 ft 224 kts 104°
2026-04-26 02:45 48.67022 -123.43368 1780 ft 213 kts 102°
2026-04-26 02:45 48.66227 -123.42145 1696 ft 219 kts 237°
2026-04-26 02:46 48.66471 -123.44738 1305 ft 263 kts 283°
2026-04-26 02:46 48.66881 -123.47347 1148 ft 246 kts 278°
2026-04-26 02:46 48.66588 -123.49156 1064 ft 178 kts 144°
2026-04-26 02:46 48.65938 -123.47462 827 ft 212 kts 106°
2026-04-26 02:47 48.65356 -123.44804 474 ft 366 kts 106°
2026-04-26 02:47 48.64138 -123.43187 559 ft 280 kts 269°
2026-04-26 02:47 48.64833 -123.45895 1235 ft 292 kts 294°
2026-04-26 02:47 48.65378 -123.45065 526 ft 169 kts 106°
2026-04-26 02:48 48.65126 -123.43631 121 ft 114 kts 107°
2026-04-26 02:48 48.64914 -123.42548 185 ft 145 kts 106°
2026-04-26 02:48 48.64553 -123.40632 688 ft 203 kts 119°
2026-04-26 02:48 48.63970 -123.41295 678 ft 184 kts 278°
2026-04-26 02:49 48.64240 -123.43492 927 ft 240 kts 279°
2026-04-26 02:49 48.64540 -123.46240 1335 ft 289 kts 279°
2026-04-26 02:49 48.65166 -123.49046 1665 ft 250 kts 352°
2026-04-26 02:49 48.65680 -123.47233 1070 ft 250 kts 97°
2026-04-26 02:50 48.65275 -123.44443 558 ft 265 kts 107°
2026-04-26 02:50 48.64755 -123.41603 392 ft 302 kts 109°
2026-04-26 02:50 48.63684 -123.39623 965 ft 225 kts 212°
2026-04-26 02:50 48.63546 -123.41723 875 ft 229 kts 277°
2026-04-26 02:51 48.63818 -123.44287 990 ft 263 kts 278°
2026-04-26 02:51 48.64222 -123.47133 1014 ft 291 kts 284°
2026-04-26 02:51 48.65273 -123.49381 1474 ft 249 kts
2026-04-26 02:51 48.65715 -123.47235 935 ft 288 kts 101°
2026-04-26 02:52 48.65151 -123.43830 377 ft 382 kts 106°
2026-04-26 02:52 48.64336 -123.39672 825 ft 419 kts 115°
2026-04-26 02:52 48.62891 -123.39850 1177 ft 273 kts 278°
2026-04-26 02:52 48.63301 -123.42650 1296 ft 281 kts 280°
2026-04-26 02:53 48.63675 -123.45653 1437 ft 299 kts 279°
2026-04-26 02:53 48.64021 -123.48948 1587 ft 376 kts 274°
2026-04-26 02:53 48.65523 -123.49792 1239 ft 418 kts 87°
2026-04-26 02:53 48.65191 -123.44076 462 ft 657 kts 107°
2026-04-26 02:54 48.63965 -123.37815 730 ft 574 kts 115°
2026-04-26 02:54 48.62035 -123.38564 893 ft 400 kts 287°
2026-04-26 02:54 48.62978 -123.42544 945 ft 410 kts 284°
2026-04-26 02:54 48.63688 -123.46639 1159 ft 384 kts 284°
2026-04-26 02:55 48.64772 -123.49771 1311 ft 304 kts 356°
2026-04-26 02:55 48.65647 -123.47741 704 ft 261 kts 87°
2026-04-26 02:55 48.65371 -123.44901 399 ft 307 kts 106°
2026-04-26 02:55 48.64603 -123.41531 525 ft 402 kts 108°
2026-04-26 02:56 48.63368 -123.38313 1243 ft 324 kts 193°
2026-04-26 02:56 48.62396 -123.40862 1547 ft 312 kts 279°
2026-04-26 02:56 48.62803 -123.43987 1483 ft 293 kts 283°
2026-04-26 02:56 48.63305 -123.46891 1447 ft 282 kts 284°
2026-04-26 02:57 48.63834 -123.49781 1404 ft 284 kts 292°
2026-04-26 02:57 48.65183 -123.50187 1396 ft 213 kts 47°
2026-04-26 02:57 48.65744 -123.48410 1169 ft 184 kts 85°
2026-04-26 02:57 48.65673 -123.46510 700 ft 170 kts 107°
2026-04-26 02:58 48.65370 -123.44818 514 ft 146 kts 108°
2026-04-26 02:58 48.65157 -123.43632 925 ft 91 kts 105°
2026-04-26 02:58 48.65003 -123.42748 845 ft 87 kts 108°
2026-04-26 02:58 48.64776 -123.41720 827 ft 182 kts 108°
2026-04-26 02:59 48.64054 -123.39632 1075 ft 283 kts 191°
2026-04-26 02:59 48.63300 -123.42649 2369 ft 399 kts 272°
2026-04-26 02:59 48.63571 -123.46706 2354 ft 377 kts 282°
2026-04-26 02:59 48.64167 -123.50481 2104 ft 363 kts 283°
2026-04-26 03:00 48.65589 -123.52206 2050 ft 274 kts 41°
2026-04-26 03:00 48.65965 -123.49341 1192 ft 323 kts 88°
2026-04-26 03:00 48.65502 -123.45643 619 ft 374 kts 106°
2026-04-26 03:00 48.64882 -123.42040 625 ft 348 kts 102°
2026-04-26 03:01 48.63659 -123.38289 1423 ft 450 kts 180°
2026-04-26 03:01 48.62911 -123.41905 1269 ft 417 kts 272°
2026-04-26 03:01 48.63096 -123.46300 1416 ft 421 kts 274°
2026-04-26 03:01 48.63437 -123.50613 1602 ft 400 kts 291°
2026-04-26 03:02 48.65375 -123.52064 1534 ft 309 kts 34°
2026-04-26 03:02 48.65801 -123.49506 1409 ft 257 kts 92°
2026-04-26 03:02 48.65607 -123.46358 741 ft 328 kts 106°
2026-04-26 03:02 48.65054 -123.43140 613 ft 299 kts 105°
2026-04-26 03:03 48.64470 -123.39998 567 ft 360 kts 107°
2026-04-26 03:03 48.63059 -123.41316 748 ft 428 kts 265°
2026-04-26 03:03 48.63197 -123.45662 1609 ft 403 kts 278°
2026-04-26 03:03 48.63661 -123.49711 2006 ft 381 kts 282°
2026-04-26 03:04 48.64160 -123.53526 2376 ft 354 kts 280°
2026-04-26 03:04 48.65365 -123.55751 2370 ft 265 kts 16°
2026-04-26 03:04 48.66821 -123.54281 1974 ft 247 kts 50°
2026-04-26 03:04 48.66701 -123.52054 1448 ft 218 kts 108°
2026-04-26 03:05 48.65964 -123.50371 1284 ft 192 kts 187°
2026-04-26 03:05 48.65805 -123.51680 1200 ft 181 kts 356°
2026-04-26 03:05 48.65965 -123.50443 1109 ft 185 kts 168°
2026-04-26 03:05 48.65395 -123.51722 1222 ft 204 kts 308°
2026-04-26 03:06 48.66081 -123.50781 864 ft 210 kts 128°
2026-04-26 03:06 48.65278 -123.51468 903 ft 209 kts 303°
2026-04-26 03:06 48.66240 -123.50915 1006 ft 196 kts 108°
2026-04-26 03:06 48.65373 -123.51190 935 ft 201 kts 283°
2026-04-26 03:07 48.66400 -123.51356 902 ft 212 kts 82°
2026-04-26 03:07 48.65439 -123.50711 780 ft 212 kts 236°
2026-04-26 03:07 48.66016 -123.51839 1417 ft 195 kts 42°
2026-04-26 03:07 48.65555 -123.50570 1249 ft 204 kts 205°
2026-04-26 03:08 48.65500 -123.52384 1035 ft 234 kts 334°
2026-04-26 03:08 48.66623 -123.51298 1099 ft 229 kts 103°
2026-04-26 03:08 48.65437 -123.50818 1297 ft 221 kts 237°
2026-04-26 03:08 48.65840 -123.52504 2039 ft 205 kts
2026-04-26 03:09 48.66523 -123.50878 1666 ft 235 kts 128°
2026-04-26 03:09 48.65704 -123.51490 1385 ft 215 kts 311°
2026-04-26 03:09 48.66245 -123.50662 1202 ft 205 kts 160°
2026-04-26 03:09 48.65996 -123.51831 1079 ft 201 kts
2026-04-26 03:10 48.66022 -123.50404 862 ft 203 kts 175°
2026-04-26 03:10 48.66206 -123.51234 743 ft 194 kts 43°
2026-04-26 03:10 48.65869 -123.50334 923 ft 177 kts 253°
2026-04-26 03:10 48.66388 -123.50255 815 ft 229 kts 104°
2026-04-26 03:11 48.65716 -123.46849 621 ft 410 kts 105°
2026-04-26 03:11 48.64943 -123.42654 417 ft 403 kts 103°
2026-04-26 03:11 48.63150 -123.43104 965 ft 469 kts 276°
2026-04-26 03:11 48.64701 -123.42125 1308 ft 522 kts 100°
2026-04-26 03:12 48.64982 -123.35653 1682 ft 669 kts 108°
2026-04-26 03:12 48.62064 -123.35996 2130 ft 533 kts 252°
2026-04-26 03:12 48.62350 -123.41128 2240 ft 489 kts 289°
2026-04-26 03:12 48.63506 -123.45968 1717 ft 487 kts 290°
2026-04-26 03:13 48.64558 -123.50088 1479 ft 354 kts 306°
2026-04-26 03:13 48.66021 -123.50009 1185 ft 196 kts 75°
2026-04-26 03:13 48.65916 -123.48118 690 ft 179 kts 103°
2026-04-26 03:13 48.65626 -123.46318 446 ft 172 kts 106°
2026-04-26 03:14 48.65309 -123.44596 210 ft 168 kts 107°
2026-04-26 03:14 48.65025 -123.43099 70 ft 118 kts 107°
2026-04-26 03:14 48.64883 -123.42413 63 ft 46 kts 107°
2026-04-26 03:14 48.64806 -123.42060 66 ft 12 kts 137°
2026-04-26 03:15 48.64742 -123.42095 61 ft 13 kts 231°
2026-04-26 03:15 48.64700 -123.42034 67 ft 18 kts 104°
2026-04-26 03:15 48.64645 -123.41882 65 ft 12 kts 160°
2026-04-26 03:15 48.64602 -123.41933 63 ft 7 kts 265°
2026-04-26 03:16 48.64606 -123.41965 63 ft 0 kts 297°
2026-04-26 03:16 48.64608 -123.41969 63 ft 0 kts 296°
2026-04-26 03:21 48.64608 -123.41970 62 ft 1 kts 297°
2026-04-26 03:21 48.64618 -123.41976 57 ft 0 kts 356°
2026-04-26 03:21 48.64621 -123.41970 58 ft 4 kts 69°
2026-04-26 03:21 48.64639 -123.41875 65 ft 14 kts 14°
2026-04-26 03:22 48.64696 -123.42010 67 ft 16 kts 285°
2026-04-26 03:22 48.64723 -123.42153 69 ft 14 kts 286°
2026-04-26 03:22 48.64758 -123.42338 61 ft 23 kts 285°
2026-04-26 03:22 48.64809 -123.42600 60 ft 27 kts 286°
2026-04-26 03:23 48.64857 -123.42854 65 ft 22 kts 287°
2026-04-26 03:23 48.64895 -123.43053 66 ft 20 kts 285°
2026-04-26 03:23 48.64939 -123.43282 63 ft 25 kts 287°
2026-04-26 03:23 48.64990 -123.43548 62 ft 26 kts 285°
2026-04-26 03:24 48.65036 -123.43791 56 ft 21 kts 287°
2026-04-26 03:24 48.65111 -123.43912 55 ft 16 kts 333°
2026-04-26 03:24 48.65169 -123.43874 57 ft 8 kts 106°
2026-04-26 03:24 48.65156 -123.43809 53 ft 5 kts 106°
2026-04-26 03:25 48.65151 -123.43778 56 ft 0 kts 106°
2026-04-26 03:26 48.65150 -123.43778 56 ft 1 kts 106°
2026-04-26 03:26 48.64999 -123.42989 66 ft 184 kts 106°
2026-04-26 03:26 48.64562 -123.40581 958 ft 294 kts 108°
2026-04-26 03:26 48.64351 -123.39953 2738 ft 190 kts 288°
2026-04-26 03:27 48.65067 -123.43241 428 ft 434 kts 285°
2026-04-26 03:27 48.65059 -123.42977 2859 ft 257 kts 108°
2026-04-26 03:27 48.64995 -123.38786 1195 ft 474 kts 85°
2026-04-26 03:27 48.63400 -123.38397 810 ft 348 kts 312°
2026-04-26 03:28 48.64767 -123.41530 536 ft 396 kts 283°
2026-04-26 03:28 48.65477 -123.45516 834 ft 420 kts 286°
2026-04-26 03:28 48.65775 -123.46922 5029 ft 135 kts 279°
2026-04-26 03:28 48.65714 -123.48932 1790 ft 329 kts 280°
2026-04-26 03:29 48.67287 -123.51463 3226 ft 95 kts 268°
2026-04-26 03:29 48.67242 -123.51968 5019 ft 184 kts 117°
2026-04-26 03:29 48.66404 -123.49548 2727 ft 326 kts 113°
2026-04-26 03:29 48.65541 -123.45857 714 ft 392 kts 106°
2026-04-26 03:30 48.64791 -123.41893 370 ft 357 kts 106°
2026-04-26 03:30 48.64681 -123.41566 5615 ft 187 kts 281°
2026-04-26 03:30 48.64860 -123.42814 1988 ft 174 kts 98°
2026-04-26 03:30 48.64526 -123.39646 1201 ft 335 kts 90°
2026-04-26 03:31 48.63857 -123.36296 2019 ft 333 kts 162°
2026-04-26 03:31 48.63763 -123.38106 1061 ft 285 kts 297°
2026-04-26 03:31 48.64699 -123.41435 463 ft 438 kts 286°
2026-04-26 03:31 48.65092 -123.43636 7083 ft 38 kts 291°
2026-04-26 03:32 48.66093 -123.43533 8159 ft 209 kts 345°
2026-04-26 03:32 48.65952 -123.43116 6117 ft 186 kts 348°
2026-04-26 03:32 48.65824 -123.42924 3020 ft 231 kts 349°
2026-04-26 03:32 48.67674 -123.43639 2177 ft 309 kts 314°
2026-04-26 03:33 48.68802 -123.46537 1604 ft 339 kts 292°
2026-04-26 03:33 48.68504 -123.49516 1704 ft 288 kts 192°
2026-04-26 03:33 48.66884 -123.48203 1305 ft 299 kts 139°
2026-04-26 03:33 48.65475 -123.45409 589 ft 366 kts 105°
2026-04-26 03:34 48.64657 -123.41141 389 ft 520 kts 105°
2026-04-26 03:34 48.63859 -123.36762 7774 ft 351 kts 101°
2026-04-26 03:34 48.63683 -123.35557 3750 ft 418 kts 282°
2026-04-26 03:34 48.64404 -123.39822 760 ft 400 kts 285°
2026-04-26 03:35 48.65033 -123.43447 207 ft 331 kts 278°
2026-04-26 03:35 48.66527 -123.46425 690 ft 442 kts 310°
2026-04-26 03:35 48.67026 -123.50064 2056 ft 326 kts 185°
2026-04-26 03:35 48.65869 -123.48108 1595 ft 256 kts 104°
2026-04-26 03:36 48.65484 -123.45630 640 ft 227 kts 105°
2026-04-26 03:36 48.65069 -123.43371 482 ft 228 kts 104°
2026-04-26 03:36 48.64645 -123.40826 630 ft 293 kts 106°
2026-04-26 03:36 48.64407 -123.39668 5555 ft 110 kts 302°
2026-04-26 03:37 48.65412 -123.41725 6211 ft 308 kts 327°
2026-04-26 03:37 48.67573 -123.43290 8930 ft 400 kts 339°
2026-04-26 03:37 48.70787 -123.45259 9586 ft 587 kts 340°
2026-04-26 03:37 48.75088 -123.47470 10392 ft 686 kts 343°
2026-04-26 03:38 48.79861 -123.49766 10586 ft 746 kts 343°
2026-04-26 03:38 48.84506 -123.52157 10521 ft 663 kts 342°
2026-04-26 03:38 48.88678 -123.54472 10495 ft 618 kts 340°
2026-04-26 03:38 48.92612 -123.56815 10490 ft 600 kts 339°
2026-04-26 03:39 48.96386 -123.59194 10496 ft 590 kts 339°
2026-04-26 03:39 49.00102 -123.61778 10504 ft 587 kts 332°
2026-04-26 03:39 49.03473 -123.65266 10510 ft 586 kts 322°
2026-04-26 03:39 49.06519 -123.69401 10504 ft 586 kts 318°
2026-04-26 03:40 49.09441 -123.73736 10491 ft 586 kts 316°
2026-04-26 03:40 49.12317 -123.78146 10494 ft 586 kts 316°
2026-04-26 03:40 49.15173 -123.82581 10493 ft 586 kts 316°
2026-04-26 03:40 49.18025 -123.87034 10499 ft 586 kts 316°
2026-04-26 03:41 49.20874 -123.91495 10497 ft 586 kts 316°
2026-04-26 03:41 49.23716 -123.95956 10497 ft 586 kts 316°
2026-04-26 03:41 49.26565 -124.00433 10492 ft 586 kts 316°
2026-04-26 03:41 49.29390 -124.04930 10485 ft 587 kts 313°
2026-04-26 03:42 49.31829 -124.09960 10506 ft 589 kts 302°
2026-04-26 03:42 49.33656 -124.15589 10510 ft 592 kts 292°
2026-04-26 03:42 49.34775 -124.21675 10517 ft 595 kts 282°
2026-04-26 03:42 49.35706 -124.27851 10514 ft 594 kts 288°
2026-04-26 03:43 49.37051 -124.33829 10516 ft 592 kts 294°
2026-04-26 03:43 49.38794 -124.39542 10518 ft 591 kts 299°
2026-04-26 03:43 49.40654 -124.45167 10513 ft 591 kts 297°
2026-04-26 03:43 49.42868 -124.50423 10524 ft 585 kts 315°
2026-04-26 03:44 49.45888 -124.54582 10524 ft 583 kts 322°
2026-04-26 03:44 49.49015 -124.58558 10503 ft 584 kts 323°
2026-04-26 03:44 49.52029 -124.62245 10208 ft 497 kts 323°
2026-04-26 03:44 49.54410 -124.65307 9319 ft 403 kts 321°
2026-04-26 03:45 49.56322 -124.67921 8335 ft 335 kts 319°
2026-04-26 03:45 49.57859 -124.70174 7406 ft 276 kts 319°
2026-04-26 03:45 49.59113 -124.71986 6694 ft 221 kts 320°
2026-04-26 03:45 49.60148 -124.73521 6032 ft 202 kts 320°
2026-04-26 03:46 49.61201 -124.74969 5248 ft 201 kts 322°
2026-04-26 03:46 49.62238 -124.76313 4630 ft 196 kts 322°
2026-04-26 03:46 49.63315 -124.77671 4170 ft 200 kts 321°
2026-04-26 03:47 49.65430 -124.80441 3241 ft 205 kts 319°
2026-04-26 03:47 49.66522 -124.81887 2633 ft 208 kts 319°
2026-04-26 03:47 49.67598 -124.83443 1974 ft 209 kts 316°
2026-04-26 03:47 49.68637 -124.84983 1298 ft 209 kts 318°
2026-04-26 03:48 49.69730 -124.86585 449 ft 219 kts 316°
2026-04-26 03:48 49.70759 -124.88136 99 ft 169 kts 315°
2026-04-26 03:48 49.71396 -124.89100 86 ft 90 kts 315°
2026-04-26 03:48 49.71721 -124.89594 89 ft 57 kts 315°
2026-04-26 03:49 49.71967 -124.89969 85 ft 35 kts 311°
2026-04-26 03:49 49.71903 -124.90155 86 ft 22 kts 192°
2026-04-26 03:49 49.71768 -124.90163 86 ft 11 kts 177°
2026-04-26 03:49 49.71750 -124.90118 88 ft 2 kts 55°
2026-04-26 03:50 49.71751 -124.90114 87 ft 0 kts 54°